Location: Casone le Fosse
(44.6547°N, 12.1103°E)
Time: 08:06:43
(UTC+00:00)

IRS-1C Rocket - Pass Details

Date: 29 October 2020
Orbit: 801 x 805 km, 99.0° (Epoch: 28 November)

Event Time Altitude Azimuth Distance (km) Brightness Sun altitude
Rises 16:48:04 0° 148° (SSE) 3,303 7.1 -8.4°
Reaches altitude 10° 16:50:27 10° 143° (SE) 2,377 6.3 -8.8°
Maximum altitude 16:55:30 50° 69° (ENE) 1,022 4.3 -9.7°
Drops below altitude 10° 17:00:35 10° 356° (N) 2,395 6.5 -10.6°
Sets 17:02:59 0° 351° (N) 3,331 7.3 -11.0°
